[[{"header":{"parameterUnit":"m.s-1","parameterCategory":1,"la1":30.2991,"la2":30.254,"lo1":-89.0895,"lo2":-89.0444,"dy":0.0017,"dx":0.0017,"nx":28,"ny":28,"refTime":"2024-06-05T09:00:00:Z","depth":0,"parameterNumber":2,"parameterNumberName":"U-component_of_WINDS"},"data":[0,0,0,0,0,0,0,0,0,0,0,0,0,0,0,0,0,0,0,0,0,0,0,0,0,0,0,0,0,0,0,0,0,0,0,0,0,0,0,0,0,0,0,0,0,0,0,0,0,0,0,0,0,0,0,0,0,0,3.8403,3.8404,0,3.8457,3.8458,3.8458,3.843,3.8429,3.8427,3.8426,3.8479,3.8482,3.8484,0,0,0,0,0,0,0,0,0,0,0,0,0,3.8272,3.8275,3.8403,3.8404,3.8405,3.8457,3.8458,3.8459,3.843,3.8428,3.8427,3.8425,3.8478,3.8481,3.8485,0,0,0,0,0,0,0,0,0,0,0,0,0,3.8328,3.8276,3.8403,3.8397,3.8397,3.8457,3.8458,3.8459,3.8431,3.8428,3.8426,3.8424,3.8477,3.8481,3.8485,3.8554,0,0,3.8498,3.85,0,0,0,0,0,0,0,0,3.8325,3.8333,3.8397,3.8397,3.8398,3.8435,3.8431,3.8491,3.8431,3.8418,3.8426,3.8423,3.8466,3.8471,3.8486,3.8556,3.8559,3.8498,3.8501,3.8502,3.8504,0,0,0,0,0,0,0,3.8321,3.833,3.8425,3.8398,3.8398,3.839,3.8396,3.8442,3.8453,3.8419,3.8417,3.8424,3.8466,3.8482,3.8487,3.856,3.8498,3.8502,3.8504,3.8506,3.8685,3.8687,0,0,0,0,0,0,3.8318,3.8327,3.8423,3.8426,3.8355,3.8394,3.84,3.8425,3.8453,3.8455,3.8425,3.8422,3.8476,3.8482,3.8488,3.8567,3.8502,3.8506,3.8509,3.8682,3.8685,3.8688,0,0,0,0,0,0,3.8315,3.8327,3.8421,3.8376,3.8388,3.8399,3.8427,3.8427,3.8443,3.8458,3.8459,3.844,3.8474,3.8483,3.8537,3.8569,3.8508,3.8512,3.868,3.8683,3.8686,3.8728,0,0,0,0,0,0,3.8311,3.8326,3.8353,3.8377,3.839,3.847,3.8429,3.843,3.8451,3.8447,3.8472,3.8474,3.8473,3.8531,3.8541,3.8573,3.8515,3.8677,3.8681,3.8685,3.8724,3.8732,3.874,0,0,0,0,0,3.8307,3.8363,3.8355,3.8367,3.8425,3.8472,3.8479,3.8477,3.8453,3.848,3.8489,3.8473,3.8564,3.8537,3.8548,3.8582,3.8675,3.868,3.8685,3.872,3.8731,3.874,0,0,0,0,0,0,3.8343,3.8367,3.8357,3.8424,3.8446,3.8467,3.8501,3.8489,3.8519,3.8514,3.851,3.8516,3.8571,3.8583,3.8552,3.8648,3.8616,3.8623,3.8638,3.8649,3.8656,3.8651,3.8519,0,0,0,0,0,3.8359,3.8396,3.8414,3.8471,3.8482,3.849,3.851,3.8507,3.853,3.8539,3.8552,3.8574,3.8606,3.8629,3.866,3.8726,3.8729,3.8754,3.8762,3.8769,3.8775,3.8806,3.8817,3.8704,3.8704,3.8704,0,0,3.8392,3.8409,3.8433,3.8479,3.8495,3.8532,3.8498,3.8539,3.8565,3.8545,3.8596,3.8606,3.863,3.8689,3.8716,3.87,3.8807,3.8775,3.8781,3.8783,3.8812,3.8823,3.8832,3.8708,3.8707,3.8707,0,0,3.847,3.8489,3.8535,3.8553,3.8578,3.8582,3.8593,3.8616,3.8621,3.8673,3.8657,3.8688,3.8747,3.8763,3.8779,3.886,3.8845,3.887,3.8911,3.8942,3.8951,3.8958,3.8984,3.8994,3.8877,3.8877,3.8877,0,3.8508,3.8563,3.8561,3.8602,3.8621,3.8604,3.865,3.8667,3.8701,3.8714,3.8696,3.8766,3.8782,3.8842,3.8862,3.8877,3.8887,3.8867,3.895,3.8958,3.8965,3.8989,3.8999,3.8879,3.8879,3.8879,3.8879,0,3.8606,3.8644,3.8679,3.8712,3.8735,3.8779,3.8781,3.8805,3.8799,3.8804,3.8855,3.8872,3.8905,3.892,3.8915,3.8979,3.8968,3.895,3.8917,3.8978,3.9,3.901,3.8883,3.8882,3.8881,3.8881,0,0,3.8709,3.8738,3.8751,3.8763,3.8789,3.8818,3.886,3.8892,3.891,3.8935,3.8967,3.9016,3.8998,3.9017,3.9013,3.9041,3.9099,3.9019,3.9019,3.903,3.9166,3.9177,3.9188,3.909,3.9092,3.9094,3.9163,0,3.8786,3.8859,3.8857,3.8924,3.8957,3.894,3.8975,3.8994,3.9,3.9028,3.9034,3.9066,3.9043,3.9053,3.908,3.9086,3.9126,3.9082,3.9118,3.9119,3.911,3.9201,3.9213,3.9278,3.9172,3.9174,3.9175,0,3.8886,3.8911,3.8982,3.8999,3.9013,3.9045,3.9072,3.91,3.912,3.9122,3.9141,3.9132,3.9172,3.9139,3.9192,3.9162,3.9177,3.9182,3.9185,3.9186,3.9149,3.9201,3.9299,3.9307,3.9189,3.9188,3.9187,0,3.8949,3.9002,3.9049,3.9061,3.9084,3.9106,3.9117,3.9134,3.9152,3.9176,3.9187,3.9216,3.9231,3.9252,3.925,3.9228,3.9303,3.9271,3.9303,3.9303,3.9318,3.9317,3.9416,3.9333,3.9333,3.9332,3.9332,0,3.9033,3.9076,3.9077,3.9106,3.9153,3.9149,3.9195,3.9203,3.9218,3.9247,3.9235,3.9262,3.9259,3.9286,3.9285,3.9327,3.9335,3.9336,3.9334,3.9335,3.9334,3.9343,3.9337,3.9335,3.9334,3.9334,3.9333,0,3.9111,3.9115,3.9165,3.9181,3.9186,3.9219,3.9232,3.9259,3.9263,3.9299,3.9307,3.9313,3.9343,3.9344,3.938,3.9379,3.9429,3.9425,3.9422,3.942,3.9451,3.9447,3.9557,3.957,3.9481,3.9482,3.9483,0,3.9164,3.9196,3.9215,3.9233,3.9244,3.9275,3.9292,3.929,3.9309,3.9332,3.9355,3.9384,3.9407,3.9456,3.9463,3.9489,3.9483,3.952,3.9487,3.9485,3.9479,3.9476,3.9478,3.9525,3.9526,3.9527,3.9528,0,3.9255,3.9254,3.9281,3.9307,3.9328,3.9349,3.9368,3.9384,3.9383,3.9404,3.9435,3.9453,3.9488,3.9516,3.9541,3.955,3.9538,3.9538,3.9546,3.9546,3.9542,3.9541,3.9437,3.9535,3.9535,3.9534,3.9534,3.9533,3.932,3.9346,3.9362,3.9391,3.9405,3.9422,3.9447,3.9453,3.9479,3.9506,3.9503,3.9537,3.9553,3.9585,3.9596,3.962,3.9608,3.962,3.9623,3.9625,3.9627,3.954,3.9626,3.9625,3.9625,3.9625,3.9625,0,3.9407,3.9416,3.9443,3.9469,3.9491,3.9478,3.9498,3.9517,3.9546,3.9562,3.9585,3.9618,3.9645,3.9653,3.9678,3.9696,3.9691,3.9702,3.97,3.9701,3.9639,3.9628,3.9706,3.9706,3.9706,3.9706,3.9706,3.9706,3.9455,3.9497,3.9498,3.9546,3.9555,3.9587,3.9599,3.9614,3.9626,3.9664,3.9685,3.9691,3.9702,3.9728,3.9751,3.9752,3.9761,3.9774,3.9773,3.9714,3.9706,3.9698,3.9687,3.9777,3.9777,3.9833,3.9833,3.9834]},{"header":{"parameterUnit":"m.s-1","parameterCategory":1,"la1":30.2991,"la2":30.254,"lo1":-89.0895,"lo2":-89.0444,"dy":0.0017,"dx":0.0017,"nx":28,"ny":28,"refTime":"2024-06-05T09:00:00:Z","depth":0,"parameterNumber":3,"parameterNumberName":"V-component_of_WINDS"},"data":[0,0,0,0,0,0,0,0,0,0,0,0,0,0,0,0,0,0,0,0,0,0,0,0,0,0,0,0,0,0,0,0,0,0,0,0,0,0,0,0,0,0,0,0,0,0,0,0,0,0,0,0,0,0,0,0,0,0,5.0153,5.0155,0,5.0367,5.0369,5.0371,5.0394,5.0392,5.039,5.0388,5.0603,5.0611,5.0618,0,0,0,0,0,0,0,0,0,0,0,0,0,4.976,4.9767,5.0153,5.0156,5.0158,5.0366,5.0369,5.0372,5.0395,5.0392,5.0389,5.0387,5.0601,5.061,5.0619,0,0,0,0,0,0,0,0,0,0,0,0,0,4.9948,4.977,5.0152,5.0195,5.0201,5.0366,5.0369,5.0373,5.0395,5.0392,5.0389,5.0386,5.0598,5.0609,5.062,5.0757,0,0,5.0656,5.0661,0,0,0,0,0,0,0,0,4.9937,4.9962,5.0186,5.0192,5.0199,5.0351,5.031,5.0501,5.0396,5.0321,5.0388,5.0384,5.0522,5.0539,5.0586,5.0767,5.0776,5.0657,5.0664,5.0669,5.0672,0,0,0,0,0,0,0,4.9924,4.9953,5.0237,5.0189,5.0197,5.0201,5.0225,5.0346,5.0437,5.0328,5.033,5.0355,5.0524,5.0575,5.0591,5.0779,5.0656,5.0667,5.0674,5.0679,5.108,5.1084,0,0,0,0,0,0,4.9904,4.9942,5.0231,5.0244,5.0058,5.0211,5.0237,5.0305,5.0436,5.0452,5.0357,5.0355,5.0557,5.0578,5.0599,5.0766,5.0669,5.068,5.0686,5.1076,5.1081,5.1085,0,0,0,0,0,0,4.9895,4.9929,5.0222,5.0094,5.0131,5.0221,5.0298,5.0311,5.0362,5.0458,5.0474,5.0393,5.0555,5.0583,5.0717,5.0774,5.0685,5.0695,5.1072,5.1078,5.1083,5.1102,0,0,0,0,0,0,4.9884,4.9926,4.998,5.0095,5.0138,5.0338,5.0301,5.0318,5.0382,5.0381,5.0496,5.0511,5.0555,5.07,5.0729,5.0788,5.0704,5.1067,5.1075,5.1081,5.1097,5.1108,5.1117,0,0,0,0,0,4.987,4.9977,4.9983,5.0018,5.0208,5.0341,5.0366,5.0415,5.0387,5.0441,5.0502,5.0508,5.0763,5.0713,5.0746,5.081,5.1064,5.1072,5.1081,5.1093,5.1106,5.1117,0,0,0,0,0,0,4.9866,4.9993,5.0001,5.0149,5.0234,5.0345,5.0415,5.0427,5.0522,5.0517,5.0572,5.0598,5.0729,5.0783,5.0726,5.0948,5.091,5.0926,5.0908,5.0922,5.0932,5.0916,5.0714,0,0,0,0,0,4.9883,4.9982,5.0087,5.0207,5.0249,5.0325,5.0385,5.0415,5.0505,5.0541,5.0613,5.0699,5.0798,5.0863,5.096,5.1105,5.1129,5.1165,5.1175,5.1182,5.1195,5.1274,5.129,5.1112,5.1112,5.1112,0,0,4.9917,4.9999,5.0058,5.0208,5.0278,5.0378,5.0355,5.0462,5.0536,5.0557,5.0688,5.0744,5.0843,5.0983,5.1048,5.1032,5.1249,5.1193,5.1198,5.1207,5.1284,5.1301,5.1315,5.1118,5.1117,5.1116,0,0,5.0032,5.0104,5.0212,5.0282,5.0388,5.0437,5.0463,5.0572,5.0609,5.0742,5.0759,5.0847,5.1018,5.1088,5.1146,5.1285,5.1293,5.1315,5.1367,5.1443,5.1457,5.147,5.1518,5.1535,5.1327,5.1327,5.1327,0,5.0062,5.0215,5.0265,5.0372,5.0436,5.046,5.0567,5.0633,5.0765,5.0808,5.0788,5.1002,5.1071,5.1226,5.126,5.1306,5.1336,5.1302,5.1451,5.1465,5.1477,5.1524,5.1542,5.1329,5.1329,5.1328,5.1328,0,5.0245,5.035,5.0424,5.0552,5.0624,5.0731,5.0795,5.0863,5.0885,5.0936,5.1069,5.1153,5.1266,5.1305,5.1329,5.1464,5.145,5.144,5.1404,5.1495,5.154,5.1558,5.1332,5.1331,5.133,5.133,0,0,5.0365,5.0518,5.0544,5.0601,5.0719,5.0801,5.0907,5.1019,5.1075,5.1164,5.1254,5.1397,5.1388,5.1453,5.1484,5.1551,5.1654,5.1533,5.1536,5.1552,5.1806,5.1813,5.1833,5.1659,5.1663,5.1666,5.1797,0,5.0492,5.0684,5.0732,5.0895,5.0992,5.1015,5.1107,5.1188,5.1238,5.1326,5.138,5.148,5.1461,5.1501,5.1568,5.1627,5.1706,5.1618,5.1742,5.1746,5.1716,5.1856,5.1864,5.1984,5.1815,5.1818,5.182,0,5.0667,5.0761,5.0934,5.1038,5.108,5.1163,5.1268,5.1353,5.1444,5.1475,5.1547,5.1572,5.1681,5.1639,5.1789,5.1729,5.1782,5.1819,5.1824,5.1838,5.1789,5.1873,5.2024,5.2042,5.1849,5.1846,5.1844,0,5.0736,5.0905,5.103,5.1079,5.1203,5.126,5.1314,5.1403,5.1467,5.1558,5.1599,5.1702,5.1758,5.1836,5.1886,5.185,5.2032,5.1994,5.206,5.2058,5.2097,5.2094,5.2259,5.2132,5.2132,5.2131,5.2131,0,5.0873,5.0978,5.1063,5.114,5.1257,5.1309,5.1423,5.1478,5.1556,5.1642,5.1668,5.1748,5.181,5.1898,5.1937,5.2055,5.2081,5.2108,5.2117,5.2106,5.2102,5.2141,5.2134,5.2136,5.2135,5.2134,5.2133,0,5.097,5.1031,5.1169,5.1275,5.1304,5.1386,5.1476,5.155,5.1599,5.1709,5.1737,5.1814,5.1919,5.1977,5.2109,5.2135,5.2267,5.2272,5.2236,5.224,5.2302,5.2295,5.2497,5.2526,5.238,5.2382,5.2383,0,5.1054,5.1135,5.1249,5.131,5.1365,5.1462,5.1527,5.158,5.1646,5.1756,5.1817,5.1923,5.2011,5.2177,5.2244,5.2344,5.2352,5.2416,5.2367,5.2352,5.2352,5.2346,5.2354,5.2424,5.2425,5.2426,5.2427,0,5.1195,5.1221,5.1314,5.1418,5.1495,5.1579,5.1662,5.1709,5.1776,5.1849,5.1957,5.2025,5.2159,5.2264,5.2369,5.2423,5.2436,5.2442,5.2462,5.2451,5.2427,5.244,5.2259,5.2437,5.2436,5.2435,5.2435,5.2435,5.1288,5.136,5.1452,5.1555,5.1623,5.1699,5.1774,5.1833,5.1924,5.2038,5.2064,5.2177,5.2264,5.2407,5.2464,5.2552,5.254,5.2569,5.2577,5.2583,5.2585,5.2413,5.2571,5.2571,5.2571,5.2571,5.257,0,5.143,5.149,5.1583,5.1699,5.1779,5.1785,5.1876,5.1942,5.2042,5.2123,5.2209,5.2332,5.2434,5.2508,5.2611,5.2667,5.2675,5.2692,5.2688,5.27,5.2591,5.2563,5.2684,5.2684,5.2684,5.2684,5.2684,5.2684,5.1513,5.1636,5.1672,5.1828,5.1887,5.1999,5.2051,5.2121,5.2185,5.2322,5.2407,5.2455,5.2532,5.2641,5.2733,5.2752,5.2789,5.2805,5.2824,5.272,5.2708,5.2697,5.2671,5.2812,5.2813,5.2927,5.2928,5.2928]}]]